Accueil
METAR-TAF:

METAR-TAF

Aéroports :

Kekaha, Hawaii, États-Unis

Pacific Missile Range Facility

latitude: 22-02-11N, longitude: 159-47-11W, altitude: 4 m

Observation

Le bulletin a été fait il y a 33 minutes, à 21:56 UTC
Vent 7 kt de sud/sud-est
Température 26°C
Humidité 89%
Pression 1011 hPa
Visibilité: 12.9 km
Ciel couvert à une hauteur de 4700 ft
pluie faible

METAR: PHBK 232156Z AUTO 15007KT 8SM -RA OVC047 26/24 A2986 RMK AO2 RAB2059E20B43 SLP113 P0001 T02560244

Heure: 12:29 (22:29 UTC)


TAF: absent

Observations et prévisions météorologiques de plus de 4000 aéroports (messages METAR et TAF).

Les stations disponibles sont représentées par des disques jaunes et rouges sur la carte.

Passer la souris dessus pour voir le nom de la station.

Cliquer dessus pour voir les observations et prévisions météorologiques.

Pour changer de carte: cliquez sur les boutons verts avec une croix noire pour zoomer, sur le bouton vert avec un tiret pour effectuer un zoom arrière, ou sur les flèches vertes pour les cartes adjacentes.


METAR-TAF: